Location: Erfurt
(50.9688°N, 11.0193°E)
Time: 12:01:51
(UTC+01:00)

Envisat - Visible Passes

Search period start: 23 November 2017 00:00
Search period end: 03 December 2017 00:00
Orbit: 764 x 766 km, 98.2° (Epoch: 23 November)

Date Brightness Start Highest point End Pass type
(mag) Time Alt. Az. Time Alt. Az. Time Alt. Az.
23 Nov 4.8 19:01:51 19° N 19:01:51 19° N 19:03:21 10° N visible
23 Nov 5.8 20:42:03 12° NNW 20:42:03 12° NNW 20:42:26 10° NNW visible
24 Nov 4.8 18:24:46 15° NNE 18:24:46 15° NNE 18:26:04 10° N visible
24 Nov 5.3 20:04:59 16° NNW 20:04:59 16° NNW 20:05:58 10° NNW visible
25 Nov 5.0 17:47:42 11° NNE 17:47:42 11° NNE 17:48:01 10° NNE visible
25 Nov 5.0 19:27:55 18° N 19:27:55 18° N 19:29:10 10° N visible
26 Nov 4.9 18:50:50 17° N 18:50:50 17° N 18:52:07 10° N visible
26 Nov 5.7 20:31:03 12° NNW 20:31:03 12° NNW 20:31:25 10° NNW visible
27 Nov 4.9 18:13:45 13° NNE 18:13:45 13° NNE 18:14:41 10° NNE visible
27 Nov 5.3 19:53:58 15° NNW 19:53:58 15° NNW 19:54:51 10° NNW visible
28 Nov 5.0 19:16:52 16° N 19:16:52 16° N 19:17:59 10° N visible
29 Nov 6.1 07:14:15 10° ENE 07:15:46 11° E 07:17:16 10° E visible
29 Nov 4.9 18:39:47 15° NNE 18:39:47 15° NNE 18:40:50 10° N visible
29 Nov 5.6 20:20:00 12° NNW 20:20:00 12° NNW 20:20:23 10° NNW visible
30 Nov 5.0 18:02:42 12° NNE 18:02:42 12° NNE 18:03:13 10° NNE visible
30 Nov 5.3 19:42:54 15° NNW 19:42:54 15° NNW 19:43:42 10° NNW visible
01 Dec 5.0 19:05:48 15° N 19:05:48 15° N 19:06:46 10° N visible
02 Dec 5.0 18:28:42 13° NNE 18:28:42 13° NNE 18:29:31 10° N visible
02 Dec 5.6 20:08:55 12° NNW 20:08:55 12° NNW 20:09:19 10° NNW visible
